CZ-6A DEB, 54513

Orbit data source: Space-Track

CZ-6A DEB, 54513 is space debris in SSO originally from a launch on Fri, 11 Nov 2022 UTC launched from the Taiyaun Space Center, China (TSC). Debris objects in space refer to the collection of defunct objects orbiting the Earth. Examples of debris include non-operational satellites, rocket bodies, and fragments generated from explosions, collisions, or faulty payload assembly.

Loading next visibility...
Identifier
54513, 2022-151JR
Orbit
SSO
Country
Flag of CNCN / PRC
Related business
Manufacturer
SAST
Mission
Spacecraft
Bus & Motor
Unknown
Mass
Unknown
Launch date (UTC)
2022-11-11 (4 years ago)
Launch vehicle
Unknown
Launch site
Taiyaun Space Center, China (TSC)
Object type
Payload
Rocket body
Debris
Shape & HBR
Unknown shape, 0.1 m
Radar Cross Section
Medium (>0.1 m² and <1 m²)

Expand to show TLE details & history
Last TLE update: 2 days ago

TLE from 2 days ago
0 CZ-6A DEB
1 54513U 22151JR  26171.30089469  .00000488  00000-0  14572-3 0  9997
2 54513  98.4794 184.9222 0148258 330.0702  29.2070 14.41437950189109
Epoch: 2026-06-20T07:13Z
TLE epoch observation values (Epoch: 2026-06-20T07:13:17.301Z)
Latitude
-0.00004°
Longitude
168.08263°
Altitude
664.773 km
Speed
7.573 km/s
True Right ascension
12h 19m 41s
True Declination
0° 00' 00"
Sunlit
Object was in daylight at epoch
Visualization orbit readout
Latitude
Unknown
Longitude
Unknown
Altitude
Unknown
Speed
Unknown
Apparent Right ascension
Unknown
Apparent Declination
Unknown
Sunlit
N/A
Visualization observer readout
Local Sidereal Time
21:35:30
Azimuth
Unknown
Elevation
Unknown
Doppler factor
Unknown
Orbital elements
Apogee altitude
856.563 km
Perigee altitude
645.176 km
Semi-major axis
7,129.006 km
Eccentricity
0.01483
Inclination
98.4794°
RAAN
184.9222°
Arg. of periapsis
330.0702°
True anomaly
30.0496°
Mean anomaly
29.207°
Eccentric anomaly
29.62693°
Mean motion
3.60578 °/min
Orbital period
99.84 mins
BSTAR
0.00014572
Loading maneuver chart data...
Computing Atmospheric mass density...
Loading historical data...
Loading historical data...
Loading historical data...
Loading historical data...
Loading historical data...
Loading historical data...
Loading historical data...

Documentation

Showing up to 5 results
|